Location: Amsterdam
(30.7274°N, 84.4357°W)
Time: 04:59:34
(UTC+00:00)

Courier 1B Rocket - Pass Details

Date: 12 February 2026
Orbit: 920 x 1201 km, 28.2° (Epoch: 5 March)

Event Time Altitude Azimuth Distance (km) Brightness Sun altitude
Rises 04:18:33 0° 259° (WSW) 3,692 - -62.6°
Reaches altitude 10° 04:21:09 10° 257° (WSW) 2,781 - -63.1°
Maximum altitude 04:27:55 71° 174° (S) 1,118 - -64.2°
Drops below altitude 10° 04:35:14 10° 92° (E) 2,993 - -65.5°
Sets 04:38:07 0° 90° (E) 3,990 - -65.9°
